Regional Weather Roundup
Issued by NWS

Home | Current Version | Previous Version | Graphics & Text | Print | Product List | Glossary Off
Versions: 1 2 3 4 5 6 7 8 9 10 11 12 13 14 15 16 17 18 19 20 21 22 23 24 25 26 27 28 29 30 31 32 33 34 35 36 37 38 39 40 41 42 43 44 45 46 47 48 49 50

000
ASUS43 KFSD 121310
RWRSD

WEATHER ROUNDUP FOR SOUTH DAKOTA
NATIONAL WEATHER SERVICE SIOUX FALLS SD
700 AM CST FRI FEB 12 2016

NOTE: "FAIR" INDICATES FEW OR NO CLOUDS BELOW 12,000 FEET WITH NO
SIGNIFICANT WEATHER AND/OR OBSTRUCTIONS TO VISIBILITY.


SDZ001>005-009-010-012>017-121400-
NORTHWEST AND NORTH CENTRAL SOUTH DAKOTA

CITY           SKY/WX    TMP DP  RH WIND       PRES   REMARKS
BUFFALO          N/A     26  20  77 NE7       30.28R WCI  18
FAITH            N/A     22  17  81 NE12      30.38R WCI  10
MOBRIDGE       CLOUDY    19  13  77 MISG      30.41R
$$

SDZ012>016-024>037-041>051-057-063-072>074-121400-
SOUTHWEST AND SOUTH CENTRAL SOUTH DAKOTA

CITY           SKY/WX    TMP DP  RH WIND       PRES   REMARKS
RAPID CTY ARPT CLOUDY    29  26  89 NE8       30.33R WCI  21
PIERRE         CLOUDY    21  16  81 N9        30.42R WCI  11
CUSTER         CLOUDY    27  21  78 VRB6      30.23R WCI  20
ELLSWORTH AFB  CLOUDY    29  27  93 NE5       30.33R WCI  24
PHILIP         CLOUDY    26  23  88 NE7       30.40R WCI  18
PINE RIDGE     CLOUDY    32  28  85 N9        30.32R WCI  24
SPEARFISH      CLOUDY    32  28  86 NW6       30.32S WCI  26
WINNER         CLOUDY    23  18  81 N13       30.40R WCI  11
$$

SDZ004>011-016>023-039-040-121400-
NORTHEAST SOUTH DAKOTA

CITY           SKY/WX    TMP DP  RH WIND       PRES   REMARKS
ABERDEEN       CLOUDY    12   4  70 N17       30.48R WCI  -5
WATERTOWN      CLOUDY    10   3  73 N20       30.38R WCI  -9
BROOKINGS      FLURRIES  10   6  84 N10       30.37R WCI  -4
SISSETON         N/A      3  -3  76 N14       30.44R WCI -15
$$

SDZ017-020-022-023-036>040-048>070-121400-
SOUTHEAST SOUTH DAKOTA

CITY           SKY/WX    TMP DP  RH WIND       PRES   REMARKS
SIOUX FALLS    CLOUDY    14   7  73 N12       30.38R WCI   0
HURON          CLOUDY    14  10  84 N12       30.45R WCI   0
CHAMBERLAIN    CLOUDY    20  16  85 N12       30.42R WCI   8
MITCHELL       CLOUDY    17  12  80 N15       30.43R WCI   2
YANKTON        CLOUDY    19  12  73 NW10      30.42R WCI   8
$$

ABBREVIATIONS USED IN REMARKS
   TC - TEMPERATURE IN CELSIUS
  WCI - WIND CHILL INDEX
   HX - HEAT INDEX
  VSB - VISIBILITY




USA.gov is the U.S. government's official web portal to all federal, state and local government web resources and services.